Wind_Speed
9 10 11 13 14 14 16 17 18 21 24 26 29 31 34 38 41 45 50 55 61 65 69 73 76 79 83 86 87 88 86 80 76 73 71 69 67 66 65 64 63 62 61 60
9 10 12 13 14 15 17 19 20 19 23 27 30 31 34 39 43 48 54 59 63 68 73 76 79 82 85 86 86 85 81 78 75 73 71 68 65 63 61 61 60 59 60 60
10 11 12 14 16 17 18 20 22 23 25 29 33 32 36 42 47 53 58 63 68 73 76 78 81 83 85 84 84 82 80 76 72 68 63 58 54 51 49 48 47 46 47 50
11 12 13 15 16 17 17 19 21 24 28 29 32 38 40 47 52 57 62 67 72 75 77 80 82 83 84 83 83 80 75 69 64 60 58 55 53 51 49 47 46 44 43 43
12 13 14 14 16 17 19 21 23 26 28 30 34 42 48 53 56 61 66 71 75 77 78 80 82 83 83 82 81 74 67 62 60 59 58 57 55 54 52 51 49 47 45 44
14 14 14 15 17 19 20 22 24 29 34 38 43 46 49 54 59 66 71 74 75 76 79 81 82 82 82 81 75 67 63 61 60 59 59 58 57 56 54 53 50 48 46 45
14 15 15 17 18 20 22 26 31 35 38 40 43 46 52 58 63 68 72 73 75 78 80 81 81 81 81 76 68 64 62 61 60 60 59 59 58 56 54 51 48 46 44 43
15 14 16 18 20 22 24 27 30 34 36 39 44 51 55 59 63 67 71 75 77 79 80 80 80 81 77 70 65 64 63 62 61 61 60 59 58 55 52 49 47 46 45 45
16 16 18 20 22 23 25 28 30 34 38 43 47 51 56 60 64 68 73 76 77 78 79 79 80 78 72 66 64 64 63 62 61 61 61 59 56 53 50 48 47 46 46 46
15 16 18 20 22 24 26 29 33 36 41 46 50 54 58 61 65 71 74 75 77 79 79 78 78 74 68 65 64 63 63 62 62 62 60 58 54 52 50 48 48 48 48 48
16 16 18 21 22 25 27 30 33 37 41 47 53 55 59 63 67 72 74 75 77 78 77 77 76 70 65 63 63 63 63 62 62 60 58 56 53 52 51 51 51 51 51 50
18 18 18 19 22 25 28 32 35 38 41 45 50 57 60 64 69 73 75 75 76 76 76 77 73 67 63 63 63 63 63 63 62 59 56 54 54 54 54 55 55 54 53 52
19 20 21 21 22 25 28 31 35 39 42 46 51 57 61 65 70 72 73 74 75 76 76 75 70 64 62 63 63 63 63 63 60 57 55 55 56 57 58 58 58 57 56 54
20 21 22 25 27 29 33 34 36 39 43 47 51 57 61 64 69 71 72 74 75 76 75 72 67 62 61 63 63 63 63 62 58 56 55 56 58 59 60 60 60 59 59 58
22 22 23 25 27 28 31 34 36 39 43 48 53 57 60 64 69 72 74 74 75 74 73 70 64 60 60 62 63 63 63 60 57 55 56 58 60 61 62 62 63 63 63 61
27 25 25 25 25 27 30 34 37 40 44 50 55 59 62 65 69 72 74 74 74 74 72 68 62 59 60 62 63 63 62 59 56 55 57 60 62 63 63 64 65 66 65 59
32 32 30 29 28 28 33 38 41 42 46 51 56 60 62 66 70 72 74 73 74 73 71 66 60 58 60 62 63 63 61 58 56 56 58 61 63 64 65 66 68 70 66 55
38 38 36 34 33 32 37 40 43 45 47 52 56 60 63 66 70 72 73 73 73 72 69 64 59 57 59 62 63 62 61 58 56 56 59 62 64 65 66 68 71 72 65 50
40 42 42 41 40 38 38 42 45 48 49 53 57 61 63 66 70 72 73 72 72 71 69 63 58 56 58 61 62 61 60 58 56 56 59 62 65 67 68 70 72 72 62 47
39 42 44 45 45 45 44 44 46 48 51 54 58 62 63 66 69 71 72 71 71 71 68 63 58 55 58 60 61 61 60 59 57 57 59 63 66 68 69 71 74 73 63 48
40 43 46 48 49 48 49 48 48 49 52 55 58 61 63 65 69 71 71 71 71 70 68 63 57 55 57 59 60 60 60 59 58 58 60 63 66 68 69 71 74 74 65 51
41 45 49 53 54 54 54 52 49 49 51 54 57 61 62 65 68 70 70 70 70 69 67 62 57 54 56 58 59 59 59 59 58 58 60 62 65 67 69 70 72 73 69 57
41 45 49 52 54 56 57 53 49 48 50 53 57 60 61 64 68 70 69 69 69 69 66 62 56 54 55 57 58 58 58 58 58 58 59 60 63 66 68 69 70 72 72 64
42 45 48 52 55 58 57 54 50 48 50 53 57 60 61 64 67 69 68 68 68 68 65 61 56 53 53 55 57 57 56 57 58 58 58 58 61 64 67 69 69 71 72 70
44 46 48 51 56 59 59 55 51 49 50 53 57 59 61 64 67 68 68 67 67 67 65 61 56 52 52 53 55 55 55 55 56 56 56 56 58 62 65 68 70 70 71 71
43 46 49 51 56 59 60 58 53 50 50 53 56 59 61 64 67 67 67 66 66 65 64 60 56 52 50 51 53 54 54 54 54 54 55 55 56 59 62 65 68 69 69 69
Wind_Direction
301 305 311 318 321 323 324 325 329 329 329 331 333 336 331 327 326 326 325 325 325 325 325 325 325 325 323 322 322 321 317 315 314 312 309 306 303 299 296 293 290 286 284 281
312 315 319 322 323 326 329 328 328 328 330 333 335 335 328 327 328 328 328 328 328 327 328 327 327 326 325 325 323 320 319 319 317 314 312 310 308 306 302 299 295 291 287 283
326 326 325 327 329 330 329 327 329 334 340 338 332 331 332 331 331 331 331 330 329 330 330 329 329 328 327 326 324 322 322 321 320 319 319 319 318 315 312 309 306 302 295 289
335 332 332 332 331 330 330 333 336 338 338 336 332 332 338 335 335 333 333 333 333 333 332 331 330 330 329 327 325 325 325 324 324 325 325 324 323 321 318 316 313 310 305 299
337 336 336 336 335 336 338 340 339 335 334 335 337 340 342 337 336 336 336 337 336 335 333 333 332 331 329 328 327 329 328 328 328 329 328 327 325 323 321 318 315 312 309 304
340 339 340 340 342 342 340 338 338 337 340 343 343 340 338 337 339 340 339 338 337 335 335 334 333 332 330 329 330 331 331 331 331 331 329 327 325 323 321 319 317 314 310 306
342 342 344 345 346 343 343 343 341 341 343 341 337 337 341 342 343 341 339 338 336 336 336 335 334 332 331 331 333 334 334 333 332 332 330 329 327 325 324 322 320 317 315 311
346 345 346 347 346 345 343 341 340 339 336 336 338 342 342 343 342 340 338 337 338 337 337 336 335 333 333 334 336 336 335 334 334 334 333 331 330 328 326 324 323 321 319 317
347 348 346 346 344 344 340 338 339 337 338 341 342 340 341 343 341 339 339 339 339 338 337 337 335 334 336 337 338 337 337 337 336 336 335 334 332 331 329 327 325 323 321 320
346 346 345 344 344 341 338 337 338 341 342 339 339 342 341 341 341 341 341 340 340 339 338 337 336 337 338 339 339 339 339 339 339 338 337 337 337 335 333 330 326 323 321 320
342 343 343 343 341 338 337 338 341 342 341 339 338 340 340 341 342 342 342 341 341 340 339 338 338 339 340 341 341 341 341 341 341 340 341 341 340 338 335 332 328 325 322 319
341 341 343 343 342 338 337 339 341 341 339 337 336 339 340 342 343 343 343 342 341 341 340 340 340 340 342 343 343 342 342 343 343 343 344 343 341 339 336 333 330 327 323 320
343 342 342 344 343 340 338 340 340 338 336 337 338 339 341 342 343 344 343 343 342 342 342 341 341 342 344 344 345 345 344 345 345 345 346 344 342 339 337 334 332 329 325 321
349 345 344 343 344 342 339 340 338 335 335 338 340 341 343 343 344 344 344 343 343 344 343 342 343 344 345 346 347 347 347 347 347 348 347 345 343 341 338 336 333 330 326 322
353 349 346 344 343 340 336 334 334 334 336 338 341 342 343 343 344 344 345 344 344 345 344 344 344 345 347 348 348 349 349 349 349 350 349 347 345 342 340 338 336 333 329 325
356 352 348 345 342 339 333 331 334 336 337 339 341 343 344 343 344 345 345 345 345 346 346 345 345 346 348 350 350 351 351 351 351 351 351 349 348 346 343 341 340 338 335 331
1 356 352 346 342 339 335 334 335 337 338 339 341 342 343 343 345 346 346 346 347 348 347 347 346 347 350 351 352 353 354 354 353 353 353 353 351 350 348 346 345 344 342 340
5 2 358 351 343 342 336 333 334 336 339 339 340 342 343 343 345 347 347 347 348 349 348 348 348 348 351 353 354 355 356 355 355 354 355 356 355 354 353 352 352 350 349 348
7 3 359 354 347 342 336 334 334 335 339 339 340 341 343 343 345 347 347 348 349 350 350 350 349 350 352 354 356 357 357 357 356 356 357 358 358 358 358 358 357 356 357 357
4 3 359 356 350 345 339 335 333 335 337 339 340 341 342 343 345 346 348 348 350 351 351 351 351 351 353 355 357 358 358 358 358 358 360 1 1 2 2 2 3 3 3 4
359 360 358 356 353 350 343 338 335 336 336 337 339 340 342 343 345 347 348 349 351 352 353 352 352 352 354 356 358 358 359 360 0 1 2 3 4 6 6 7 8 9 9 9
355 356 356 354 353 351 346 341 337 335 335 336 338 340 341 343 345 347 348 350 351 353 354 354 353 353 354 357 359 359 0 1 2 3 4 5 7 9 10 11 12 14 15 15
350 352 353 353 350 349 346 342 338 334 334 335 337 340 341 343 346 347 348 350 352 353 354 354 354 354 355 358 359 0 1 2 4 5 6 7 9 11 13 14 16 18 20 21
345 347 349 350 349 348 346 344 339 335 334 335 337 339 340 343 346 347 348 350 352 354 355 355 355 355 356 358 0 1 2 3 5 7 7 8 11 13 15 17 19 21 23 25
339 343 345 347 347 346 345 344 340 336 335 335 337 338 340 343 346 347 347 349 352 354 355 356 356 356 358 359 1 2 3 5 7 8 7 9 12 15 17 18 21 23 24 26
333 337 340 343 344 345 344 344 341 337 335 336 336 338 340 342 345 346 347 349 351 354 355 356 356 357 359 0 1 3 4 6 8 9 9 11 14 16 18 21 23 25 26 27
Height
5881 5880 5878 5877 5875 5873 5871 5870 5868 5864 5860 5858 5855 5852 5846 5840 5834 5826 5817 5808 5798 5787 5775 5763 5749 5736 5721 5705 5689 5673 5657 5641 5628 5616 5604 5594 5585 5575 5567 5559 5553 5548 5544 5541
5881 5878 5877 5875 5874 5871 5869 5867 5865 5863 5859 5854 5851 5848 5842 5835 5827 5819 5810 5800 5789 5776 5763 5750 5736 5721 5706 5690 5672 5655 5638 5624 5610 5597 5585 5574 5564 5555 5546 5539 5532 5527 5523 5519
5879 5877 5875 5873 5871 5869 5867 5864 5861 5858 5855 5851 5846 5844 5837 5828 5820 5812 5802 5790 5778 5765 5752 5738 5724 5708 5692 5675 5656 5638 5622 5608 5594 5581 5569 5559 5549 5540 5532 5525 5517 5510 5504 5500
5877 5875 5873 5871 5869 5866 5865 5862 5859 5855 5851 5848 5843 5836 5831 5820 5812 5802 5792 5780 5768 5755 5741 5727 5711 5695 5677 5658 5640 5623 5607 5593 5580 5568 5557 5547 5537 5528 5520 5512 5505 5498 5491 5486
5876 5874 5872 5869 5867 5865 5862 5858 5855 5852 5848 5843 5837 5828 5822 5812 5804 5794 5783 5771 5758 5745 5731 5715 5698 5681 5662 5643 5626 5610 5596 5582 5570 5558 5546 5536 5526 5516 5507 5499 5492 5485 5479 5473
5875 5872 5870 5868 5865 5862 5859 5857 5853 5848 5841 5835 5828 5823 5818 5808 5797 5785 5774 5762 5750 5736 5720 5704 5686 5668 5649 5631 5615 5601 5587 5574 5561 5549 5537 5526 5516 5506 5496 5488 5480 5473 5466 5460
5874 5871 5869 5866 5863 5860 5857 5853 5847 5841 5836 5832 5827 5820 5812 5800 5789 5779 5767 5756 5742 5726 5710 5693 5676 5657 5639 5622 5606 5592 5578 5565 5553 5541 5529 5517 5505 5494 5484 5476 5468 5460 5454 5447
5872 5870 5867 5864 5861 5858 5854 5851 5846 5840 5835 5831 5821 5812 5805 5795 5785 5774 5762 5748 5732 5716 5700 5682 5664 5646 5629 5613 5598 5584 5570 5557 5545 5532 5520 5507 5495 5484 5474 5465 5457 5449 5442 5435
5871 5869 5865 5862 5859 5856 5852 5848 5844 5838 5830 5823 5817 5809 5799 5790 5781 5769 5754 5738 5723 5708 5690 5672 5654 5636 5619 5604 5590 5576 5562 5549 5536 5523 5511 5498 5486 5475 5465 5456 5447 5439 5431 5423
5870 5868 5864 5861 5857 5853 5850 5845 5840 5833 5825 5818 5811 5804 5794 5785 5774 5760 5745 5731 5715 5698 5681 5663 5645 5627 5611 5597 5583 5569 5555 5541 5528 5515 5502 5490 5478 5467 5457 5448 5438 5429 5420 5411
5868 5866 5864 5859 5855 5851 5846 5842 5836 5830 5822 5813 5804 5801 5789 5778 5766 5753 5738 5723 5706 5690 5672 5654 5636 5620 5605 5591 5576 5562 5549 5535 5521 5508 5495 5483 5471 5460 5449 5439 5428 5418 5408 5399
5867 5865 5861 5858 5854 5848 5843 5838 5832 5827 5819 5810 5801 5795 5781 5770 5758 5745 5729 5714 5698 5681 5664 5646 5629 5613 5599 5585 5571 5556 5542 5528 5514 5501 5489 5477 5465 5453 5442 5430 5418 5407 5396 5386
5865 5862 5859 5856 5854 5848 5842 5836 5829 5822 5815 5806 5797 5789 5775 5763 5750 5736 5721 5706 5691 5675 5657 5640 5623 5608 5594 5580 5565 5550 5536 5522 5508 5495 5483 5471 5458 5446 5433 5420 5407 5395 5383 5372
5864 5860 5857 5853 5847 5841 5836 5832 5826 5818 5810 5802 5792 5781 5769 5757 5744 5730 5716 5701 5685 5668 5651 5634 5618 5603 5590 5575 5560 5546 5531 5516 5503 5491 5478 5465 5452 5438 5424 5409 5396 5382 5368 5355
5863 5859 5855 5850 5845 5840 5834 5828 5822 5815 5806 5797 5788 5777 5766 5754 5741 5726 5711 5695 5679 5662 5646 5629 5614 5600 5587 5572 5557 5542 5527 5513 5499 5486 5474 5460 5445 5430 5415 5399 5384 5368 5352 5336
5861 5857 5853 5850 5844 5839 5832 5825 5818 5810 5801 5792 5782 5772 5761 5749 5735 5721 5706 5690 5674 5658 5641 5624 5609 5596 5583 5569 5554 5539 5524 5510 5496 5483 5470 5455 5440 5424 5408 5391 5373 5355 5336 5319
5858 5854 5850 5846 5840 5836 5828 5821 5813 5806 5797 5787 5777 5768 5755 5743 5731 5717 5701 5686 5670 5653 5636 5620 5606 5593 5579 5565 5550 5536 5521 5507 5493 5480 5466 5452 5436 5419 5401 5383 5364 5343 5322 5304
5856 5851 5846 5841 5836 5829 5826 5816 5808 5800 5792 5782 5772 5762 5751 5739 5726 5712 5697 5681 5665 5648 5632 5617 5603 5590 5576 5562 5548 5532 5518 5504 5491 5478 5464 5449 5433 5416 5397 5377 5356 5335 5313 5296
5854 5848 5842 5835 5829 5824 5819 5810 5801 5794 5788 5778 5767 5757 5746 5734 5721 5708 5692 5677 5661 5645 5628 5614 5600 5587 5574 5560 5545 5531 5517 5503 5490 5476 5463 5447 5431 5413 5394 5373 5353 5331 5310 5294
5853 5847 5841 5833 5825 5818 5814 5805 5796 5789 5781 5773 5762 5752 5741 5730 5717 5704 5687 5672 5657 5641 5625 5611 5598 5585 5572 5558 5544 5530 5516 5503 5489 5475 5461 5445 5429 5411 5392 5372 5352 5330 5309 5294
5850 5844 5838 5830 5823 5815 5808 5798 5790 5784 5777 5767 5757 5748 5737 5725 5713 5699 5684 5669 5654 5638 5623 5608 5595 5583 5570 5557 5543 5529 5516 5502 5488 5474 5459 5445 5429 5411 5394 5375 5355 5334 5314 5299
5845 5839 5833 5825 5816 5812 5802 5792 5786 5779 5771 5762 5753 5743 5732 5720 5708 5694 5680 5666 5651 5636 5620 5605 5592 5581 5569 5556 5543 5529 5516 5502 5488 5474 5461 5446 5431 5415 5398 5380 5361 5342 5322 5306
5842 5836 5830 5823 5817 5808 5798 5789 5781 5774 5766 5758 5749 5739 5728 5716 5704 5691 5677 5663 5648 5633 5618 5604 5591 5579 5568 5556 5543 5530 5517 5504 5490 5476 5463 5449 5435 5420 5404 5387 5369 5351 5333 5316
5839 5833 5827 5820 5812 5804 5794 5785 5777 5769 5761 5753 5744 5734 5723 5712 5700 5688 5674 5660 5646 5632 5617 5602 5590 5578 5567 5555 5543 5530 5518 5505 5492 5479 5466 5453 5439 5424 5409 5393 5376 5360 5343 5327
5834 5828 5822 5816 5809 5800 5791 5782 5773 5764 5757 5749 5740 5730 5719 5708 5697 5684 5671 5658 5644 5630 5615 5601 5589 5577 5566 5555 5543 5531 5519 5507 5494 5482 5470 5457 5443 5429 5414 5398 5383 5367 5351 5337
5831 5825 5818 5813 5805 5796 5787 5777 5768 5760 5752 5744 5735 5725 5715 5705 5694 5681 5668 5655 5642 5628 5614 5600 5588 5576 5566 5555 5544 5533 5521 5509 5498 5486 5474 5462 5449 5435 5421 5407 5392 5377 5363 5350